Zurück zum Katalog

FENGYUN 1C DEB

AktivSSO
NORAD 37064·DEBRIS·🇨🇳 China

Gestartet May 10, 1999 von Taiyuan Satellite Launch Center

Loading…

Nächste Überflüge (nächste 24 Stunden)

TLE

VeraltetSource: Space-Track

Epoche: Aug 26, 2026, 05:54 UTC

1 37064U 99025EEY 26238.24646438  .00004796  00000-0  21891-2 0  9992
2 37064  98.9052  36.0967 0102705  90.5440 270.7505 14.19240305851709

Verfolge FENGYUN 1C DEB in Echtzeit mit AllMySat

Download on the App Store